Regional Weather Roundup
Issued by NWS Wakefield, VA

Home | Current Version | Previous Version | Text Only | Print | Product List | Glossary Off
Versions: 1 2 3 4 5 6 7 8 9 10 11 12 13 14 15 16 17 18 19 20 21 22 23 24 25 26 27 28 29 30 31 32 33 34 35 36 37 38 39 40 41 42 43 44 45 46 47 48 49 50

000
ASUS41 KAKQ 272010
RWRAKQ

REGIONAL WEATHER ROUNDUP
NATIONAL WEATHER SERVICE WAKEFIELD VA
300 PM EST FRI FEB 27 2015

Note: "fair" indicates few or no clouds below 12,000 feet with no
significant weather and/or obstructions to visibility. * = Denotes
station may not report precipitation (e.g., rain,snow,etc.),
thunder or fog.

VAZ042-051-052>054-056-272100-
NORTHERN VIRGINIA

CITY           SKY/WX    TMP DP  RH WIND       PRES   REMARKS
WASH NATIONAL  MOSUNNY   34  11  38 NW17      30.47R WCI  23
DULLES         MOSUNNY   30   8  39 N10       30.46R WCI  21
FORT BELVOIR   SUNNY     33   9  37 NW12G24   30.46R WCI  24
QUANTICO       MOSUNNY   35  12  38 N10G22    30.47R
FREDERICKSBRG* SUNNY     37  15  41 NW6       30.44R
STAFFORD*      SUNNY     34  11  38 NW7       30.49R
WARRENTON      SUNNY     35  19  51 NE9       30.44R
CULPEPER*      SUNNY     36  12  38 N7        30.44R
MANASSAS*      SUNNY     32  14  47 NW16      30.46R WCI  21
LEESBURG*      SUNNY     32  12  43 NW10      30.46R WCI  24
WINCHESTER     SUNNY     32   3  29 NW14      30.42R WCI  22
FRONT ROYAL*   FAIR      32   9  37 W5        30.40R
LURAY*         MOCLDY    36  16  44 NW3       30.39R
$$

VAZ048-049-060>072-079>083-272100-
CENTRAL AND SOUTH CENTRAL VIRGINIA

CITY           SKY/WX    TMP DP  RH WIND       PRES   REMARKS
RICHMOND       PTSUNNY   35  22  58 E6        30.43R
CHESTERFIELD*  CLOUDY    36  18  48 NE8       30.43R
PETERSBURG*    PTSUNNY   38  28  69 NE8       30.42R
HANOVER        MOSUNNY   36  19  50 CALM      30.44S
TAPPAHANNOCK*  PTSUNNY   34  12  40 NW5       30.46R
QUINTON*       MOCLDY    33  23  66 N5        30.44R
CHARLOTTSVILLE MOSUNNY   38  12  34 VRB3      30.38R
GORDONSVILLE*  MOCLDY    34  15  46 NE5       30.40R
ORANGE*        MOSUNNY   34  16  47 CALM      30.43R
LOUISA*        CLOUDY    36  19  51 NE3       30.40R
BUMPASS*       CLOUDY    35  16  46 CALM      30.41R
FARMVILLE*     MOSUNNY   47  14  26 SW6       30.38R
CREWE*         FAIR      41  20  42 N5        30.39R
FORT PICKETT*  FAIR      39  21  48 N3        30.39R
CHASE CITY*    FAIR      42  20  40 W8        30.40R
CLARKSVILLE*   FAIR      41  19  42 NW3       30.40R
SOUTH HILL*    MOSUNNY   41  17  37 W5G16     30.44S
LAWRENCEVILLE* FAIR      42  20  42 NW8       30.38S
EMPORIA*       MOSUNNY   41  19  42 W6        30.41S
$$

VAZ088>098-272100-
SOUTHEAST VIRGINIA

CITY           SKY/WX    TMP DP  RH WIND       PRES   REMARKS
NORFOLK        PTSUNNY   32  24  72 N12       30.43R WCI  23
VIRGINIA BEACH PTSUNNY   37  26  64 N10       30.43R
NORFOLK NAVAL  PTSUNNY   35  25  66 N17       30.45R WCI  25
WEST POINT*    CLOUDY    35  23  61 N6        30.47R
SALUDA*        CLOUDY    31  21  67 N6        30.46R
NEWPORT NEWS   LGT RAIN  37  25  61 NE8       30.44R
LANGLEY AFB    PTSUNNY   32  27  80 NE13      30.44R WCI  22
FORT EUSTIS    PTSUNNY   36  28  71 VRB5      30.42R
WILLIAMSBURG*  MOSUNNY   37  30  75 NE5       30.45R
HR EXEC AP*    CLOUDY    34  21  60 NE10G16   30.45R
FRANKLIN*      CLOUDY    38  28  67 NE13G20   30.41R
WAKEFIELD      PTSUNNY   39  26  59 VRB6      30.42R
$$

VAZ020-022-025-037-045-272100-
WEST CENTRAL AND SOUTHWEST VIRGINIA

CITY           SKY/WX    TMP DP  RH WIND       PRES   REMARKS
STAUNTON*      MOSUNNY   33  13  42 E5        30.38R
WAYNESBORO*    FAIR      35  10  36 SW9G16    30.34R
HOT SPRINGS VA MOSUNNY   22   6  49 NW14G22   30.22R WCI   9
LYNCHBURG      SUNNY     37  11  34 W9G17     30.40R
DANVILLE       SUNNY     39  18  42 N6        30.40R
SOUTH BOSTON*  FAIR      39  17  40 N9        30.41R
MARTINSVILLE   MOSUNNY   42  16  35 N10       30.39S
ROANOKE        MOSUNNY   34  13  41 NW18      30.41R WCI  23
BLACKSBURG     SUNNY     29  12  50 NW12G17   30.38S WCI  19
DUBLIN*        SUNNY     31  15  50 NW13      30.37R WCI  21
MARION*        CLOUDY    28  14  55 NW9G17    30.35S
HILLSVILLE*    MOSUNNY   29  16  58 NW14G20   30.31R WCI  18
RICHLANDS*     CLOUDY    22  10  58 NW3       30.36S
WISE*          PTSUNNY   27  10  50 N6        30.38R
ABINGDON*      CLOUDY    32  15  49 W7        30.38S
$$

MDZ021>025-VAZ099-100-272100-
SOUTHERN MARYLAND AND THE DELMARVA PENINSULA

CITY           SKY/WX    TMP DP  RH WIND       PRES   REMARKS
PATUXENT RIVER PTSUNNY   29  21  72 NE13      30.46R WCI  19
BAY BRIDGE APT   N/A     32  14  47 N7        30.46R
LEONARDTOWN    MOSUNNY   32  21  64 NE5       30.46R
DOVER          PTSUNNY   31  17  57 NW10      30.44R WCI  22
GEORGETOWN     CLOUDY    36  20  52 N7        30.44R
EASTON         MOSUNNY   32  19  59 N12       30.48R WCI  23
CAMBRIDGE      PTSUNNY   32  21  64 N9        30.44R
SALISBURY      LGT SNOW  33  24  69 NW12      30.44R WCI  24
OCEAN CITY     CLOUDY    31  22  69 NE9       30.43R
WALLOPS ISLAND CLOUDY    30  24  78 E7        30.44R
ACCOMACK*      CLOUDY    32  23  69 NW10      30.44R WCI  24
$$

NCZ012>017-030>032-272100-
NORTH CENTRAL AND EASTERN NORTH CAROLINA

CITY           SKY/WX    TMP DP  RH WIND       PRES   REMARKS
ROANOKE RAPIDS FAIR      45  23  42 NW8       30.39S
RALEIGH        MOSUNNY   44  23  43 CALM      30.38S
ELIZABETH CITY MOSUNNY   44  31  60 N7        30.40R
AHOSKIE*       SUNNY     44  23  44 NW3       30.40R
EDENTON*       MOSUNNY   46  31  55 N8        30.39R
CURRITUCK*     PTSUNNY   40  25  54 NE13      30.42R
KILL DEVIL HLS SUNNY     38  30  71 N7        30.39R
MANTEO         SUNNY     41  27  56 N14G20    30.40R
CAPE HATTERAS  PTSUNNY   40  28  62 N10G20    30.38R
TARBORO*       FAIR      48  26  41 N7        30.40S
GOLDSBORO      SUNNY     47  33  58 N8        30.36R
WASHINGTON     MOSUNNY   47  31  53 N10       30.39R
GREENVILLE     MOSUNNY   48  28  46 N8        30.39R
NEW BERN       MOSUNNY   49  29  46 NW8       30.38R
WILMINGTON     PTSUNNY   50  32  50 NW10      30.37R
$$

VAZ048-272100-
ELSEWHERE

CITY           SKY/WX    TMP DP  RH WIND       PRES   REMARKS
HARRISBURG PA  MOSUNNY   30  10  43 W13       30.45R WCI  20
BALTIMORE      MOSUNNY   30  11  45 W12       30.45R WCI  20
ANNAPOLIS      SUNNY     31  12  45 NW10      30.45R WCI  22
ANDREWS AFB    SUNNY     32  13  44 NW15      30.44R WCI  22
PHILADELPHIA   MOSUNNY   30   8  39 NW13G18   30.44R WCI  20
HENDERSON NC   SUNNY     42  17  36 NW5       30.39R
GREENSBORO     MOSUNNY   42  21  43 NW8       30.35S
ROCKY MOUNT    SUNNY     47  27  45 N8        30.38S
$$

VAZ100-272100-
MARINE

STATION/POSITION TIME  TEMP    WIND        PRES    WAVE   SWELL
                       AIR SEA DIR/SP/G            HT/PER HT/PER
                 (UTC) (F)     (DEG/KT/KT) (MB)    (FT/S) (FT/S)
BRANDYWINE LGT   2000   27 30  340/ 12/ 14 1030.6S
CAPE MAY NJ      2000   28 33  310/  8/ 13 1030.1R
LEWES DE         2000   27 30  360/ 12/ 14 1030.7R
15NM E FENWICK I 2000   28 36              1030.2R   5/ 9
OCEAN-CITY-INLET 2000   29 32   70/  8/ 14 1030.2R
WACHAPREAGUE VA  2000   30 33  330/  2/ 10 1030.7R
THOMAS POINT MD  2000   28 32   40/ 10/ 11 1032.4R
COVE POINT MD    2000   27      30/  8/ 11 1030.9R
SOLOMONS ISLAND  2000      33                N/A
BISHOPS HEAD MD  2000   31 31  360/  5/ 12 1030.4S
CAMBRIDGE MD     2000   29 32  320/  8/ 10 1030.9R
LEWISETTA VA     2000                      1031.1R
RAPPAHANNOCK LGT 2000          350/ 15/ 16 1031.5R
STINGRAY PT      2000   31      20/ 10/ 10   N/A
YORK RVR RNG VA  2000   32      40/  9/ 10 1030.3R
YORKTOWN VA      2000   31 33   30/  7/  9 1030.6R
DOMINION TERM VA 2000   33      30/  9/ 13 1030.7R
KIPTOPEKE VA     2000           20/  8/ 14   N/A
CHES BAY BRIDGE  2000   31 33   10/ 18/ 20 1030.0R
CAPE HENRY VA    2000   31     350/ 14/ 16 1028.9S
CHESAPEAKE LGHT  1900   33      10/ 12/ 12 1030.1R
WILLOUBY STN VA  2000           20/ 15/ 17 1031.2R
S CRANEY ISL VA  2000           20/ 14/ 17 1030.5R
CAPE HENRY BUOY  2000      35                N/A     5/11   2/11
1ST LANDING BUOY 2000   32      10/ 14/ 16 1029.9R
OFFSHORE WE BUOY 2000      38                N/A     5/11   5/11
64NM E OF VA BCH 2000   41 61  350/ 17/ 21 1028.4R   6/11   5/11
DUCK PIER NC     2000   35 35   10/ 12/ 14 1028.6R
44100 DUCK FRF   1900      37                N/A     6/10   3/11
44056 DUCK FRF   2000      35                N/A     5/11   3/11
OREGON INLET NC  2000   38 38  350/ 13/ 20 1029.0R
HATTERAS NC      2000   39 40   20/ 14/ 16 1028.5R
CAPE LOOKOUT NC  2000   45      20/ 12/ 14 1028.3R
$$



USA.gov is the U.S. government's official web portal to all federal, state and local government web resources and services.